Other Public Products
Issued by NWS Grand Forks, ND

Home | Current Version | Previous Version | Graphics & Text | Print | Product List | Glossary On
Versions: 1 2 3 4 5 6 7 8 9 10 11 12 13 14 15 16 17 18 19 20 21 22 23 24 25 26 27 28 29 30 31 32 33 34 35 36 37 38 39 40 41 42 43 44 45 46 47 48 49 50
000
FPUS83 KFGF 302031
OPUFGF
PRAIRIE TO PINES WEATHER ROUNDUP
NATIONAL WEATHER SERVICE EASTERN NORTH DAKOTA/GRAND FORKS ND
300 PM CDT TUE SEP 30 2014

 **SATELLITE DATA USED TO AUGMENT SKY COVER AT AUTOMATED STATIONS**
 *****  WEATHER ACROSS EASTERN NORTH DAKOTA  *****

CITY           SKY/WX    TMP DP  RH WIND       PRES   REMARKS
GRAND FORKS    CLOUDY    61  45  55 SE18G24   29.76F
GRAND FORKS AF CLOUDY    60  47  61 SE16      29.75F
GRAND CITY NWS   N/A     59 N/A N/A E20         N/A
BUXTON           N/A     60  43  53 E18G30      N/A
DEVILS LAKE    CLOUDY    54  45  71 SE14      29.67F
FARGO          PTSUNNY   61  44  53 SE16G35   29.74F
WAHPETON ARPT  CLOUDY    52  45  76 SE16G25   29.76F
$$

 *****  WEATHER ACROSS CENTRAL AND WESTERN NORTH DAKOTA  *****

CITY           SKY/WX    TMP DP  RH WIND       PRES   REMARKS
JAMESTOWN      CLOUDY    51  47  86 E15G30    29.65F
BISMARCK       CLOUDY    54  53  97 E18       29.55F FOG
MINOT          LGT RAIN  50  47  89 E12       29.61F
MINOT AFB      DRIZZLE   49  49 100 E15       29.61F
GARRISON         N/A     51  50  96 E13       29.58F
WILLISTON      CLOUDY    55  51  86 E12       29.56F
DICKINSON      CLOUDY    53  51  93 E13       29.50F FOG
HETTINGER      LGT RAIN  54  52  93 NE12      29.46F FOG
$$

 *****  OTHER OBSERVATIONS NORTHEAST NORTH DAKOTA  *****

CITY           SKY/WX    TMP DP  RH WIND       PRES   REMARKS
WALHALLA       FAIR      57  50  77 SE16G25   29.76F
LANGDON        MOCLDY    54  46  76 SE20G26   29.73F
CAVALIER       LGT RAIN  57  48  72 SE8       29.76F
GRAFTON        FAIR      57  46  67 SE16G23   29.76F
CANDO          CLOUDY    50  46  87 E20       29.69F
FORT TOTTEN      N/A     52  47  84 SE9       29.95
ROLLA          CLOUDY    48  48 100 SE14G22   29.70F
RUGBY          CLOUDY    48  48 100 SE20G25   29.65F
 ***** THE ABOVE OBSERVATIONS ARE NON NWS ARE NOT QUALITY
        CONTROLLED AND MAY MIS-REPORT RAIN FOR SNOW...
$$

 *****  OTHER OBSERVATIONS SOUTHEAST NORTH DAKOTA *****

CITY           SKY/WX    TMP DP  RH WIND       PRES   REMARKS
COOPERSTOWN    NOT AVBL
VALLEY CITY    LGT RAIN  52  52 100 SE21G28   29.69F
OAKES            N/A     50  50 100 E22       29.64F
GWINNER        CLOUDY    52  48  87 SE25G35   29.70F
SHEYENNE NWR     N/A     52  47  83 SE17      29.95S
BUFFALO          N/A     55  45  68 SE20        N/A
WYNDMERE         N/A     54  48  82 SE14        N/A
 ***** THE ABOVE OBSERVATIONS ARE NON NWS ARE NOT QUALITY
       CONTROLLED AND MAY MIS-REPORT RAIN FOR SNOW...
$$

  *****  WEATHER ACROSS NORTHERN MINNESOTA  *****

CITY           SKY/WX    TMP DP  RH WIND       PRES   REMARKS
FLAG ISLAND    SUNNY     54  45  71 SE9G16    29.88F
WARROAD        SUNNY     61  46  59 SE10G18   29.87F
ROSEAU         SUNNY     63  45  51 SE14G21   29.84F
HALLOCK          N/A     61  45  55 SE15G23   29.78F
THF RVR FALLS  PTSUNNY   57  43  58 E18       29.80F
HALSTAD          N/A     61  39  44 SE21        N/A
FOSSTON        PTSUNNY   59  43  55 E14G20    29.82F
BAUDETTE       SUNNY     57  43  59 SE10G17   29.90F
WASKISH        SUNNY     57  45  62 E12G17    29.89F
CROOKSTON      CLOUDY    61  43  51 SE22      29.78F
$$
  *****  WEATHER ACROSS CENTRAL AND WEST MINNESOTA  *****

CITY           SKY/WX    TMP DP  RH WIND       PRES   REMARKS
BEMIDJI        MOSUNNY   54  42  64 SE16      29.88F
PARK RAPIDS    PTSUNNY   55  42  61 SE13G23   29.88F
WADENA         PTSUNNY   55  43  62 E20       29.84F
DETROIT LAKES  PTSUNNY   57  43  58 SE15G24   29.81F
MOORHEAD       NOT AVBL
FERGUS FALLS   CLOUDY    57  45  62 SE20G26   29.78F
ELBOW LAKE     CLOUDY    55  46  73 SE15G28   29.79F
MORRIS MN      PTSUNNY   55  46  71 SE17G25   29.78F
STAPLES        PTSUNNY   54  43  66 SE13      29.88F
WHEATON        LGT RAIN  48  46  93 E20G26    29.76F
$$
  *****  WEATHER ELSEWHERE ACROSS MINNESOTA  *****

CITY           SKY/WX    TMP DP  RH WIND       PRES   REMARKS
DULUTH         CLOUDY    48  41  76 E14G23    30.02F
INTRNTL FALLS  SUNNY     56  43  61 SE9       29.96F
ELY            SUNNY     55  39  54 SE8       30.01F
CLOQUET        CLOUDY    48  41  76 E12       30.00F
BRAINERD       PTSUNNY   50  42  74 SE9G22    29.94F
HIBBING        SUNNY     56  42  59 SE17      29.99F
ALEXANDRIA     CLOUDY    55  44  66 E18G26    29.85F
SAINT CLOUD    PTSUNNY   57  42  57 E12G20    29.92F
MINNEAPOLIS    PTSUNNY   56  42  59 E15       29.95F
$$

  *****  WEATHER ACROSS SOUTH DAKOTA  *****

CITY           SKY/WX    TMP DP  RH WIND       PRES   REMARKS
SIOUX FALLS    PTSUNNY   65  61  87 SE21G33   29.73F
BROOKINGS      NOT AVBL
WATERTOWN      CLOUDY    57  53  86 SE14G21   29.70F
HURON          MOSUNNY   71  60  68 SE22G36   29.57F
SISSETON         N/A     49  48  97 SE13G25   29.73F
ABERDEEN       CLOUDY    65  58  78 SE24G31   29.58F
MITCHELL       SUNNY     79  51  37 S16G25    29.61F
PIERRE         LGT RAIN  65  51  60 S25G35    29.44S
MOBRIDGE       CLOUDY    68  54  60 SE26G40   29.39F
RAPID CITY     PTSUNNY   62  48  60 NW25G33   29.52R
$$

  *****  SOME WEATHER IN NEARBY STATES *****

CITY           SKY/WX    TMP DP  RH WIND       PRES   REMARKS
GLASGOW MT     PTSUNNY   63  50  62 W3        29.56F
GREAT FALLS MT CLOUDY    60  41  49 SW16      29.70F
CHEYENNE WY    PTSUNNY   59  33  37 W20G30    29.83F
SCOTTSBLUFF NE MOSUNNY   70  43  37 W22G30    29.72F
OMAHA NE       RAIN      66  63  90 N3        29.82F FOG
DES MOINES IA  MOSUNNY   67  58  72 E13       29.89F HAZE
DAVENPORT IA   NOT AVBL
CHICAGO IL     PTSUNNY   55  46  71 NE13      30.03S
EAU CLAIRE WI  MOSUNNY   56  42  59 VRB5      30.01F
LA CROSSE WI   PTSUNNY   55  43  63 E9        30.01F
$$

  *****  SOME NATIONAL WEATHER *****

CITY           SKY/WX    TMP DP  RH WIND       PRES   REMARKS
LA GUARDIA NY  CLOUDY    66  58  75 E9        29.93F
RALEIGH NC     MOSUNNY   73  62  68 CALM      29.88F
ATLANTA GA     MOSUNNY   82  60  47 W3        29.90F
NEW ORLEANS LA MOSUNNY   88  69  53 NE12      29.84F HX  92
OKLAHOMA CITY  MOSUNNY   87  56  34 S16G24    29.79F
ALBUQUERQUE NM MOSUNNY   71  31  22 NW10G17   29.97F
SALT LAKE CITY PTSUNNY   63  41  44 N6        29.95F
LOS ANGELES CA SUNNY     76  59  55 W10       29.84F
BOISE ID       MOSUNNY   59  37  44 NW18G24   30.00S
SEATTLE WA     MOSUNNY   62  50  64 S6        30.12R
$$

*** WEATHER ACROSS MANITOBA...SASKATCHEWAN AND ONTARIO ***
                ***ONTARIO***

CITY           SKY/WX    TMP DP  RH WIND       PRES   REMARKS
GERALDTON      SUNNY     55  34  44 S5        30.11F
THUNDER BAY    SUNNY     54  32  43 E9        30.11
SIOUX LOOKOUT  MOSUNNY   52  41  66 S8        30.02F
TORONTO        CLOUDY    63  59  88 E3        29.92S
BIG TROUT LK   CLOUDY    45  36  70 S8        30.01F
PICKLE LAKE    MOSUNNY   52  39  62 S7        30.03F
DRYDEN         SUNNY     52  43  71 SE13      29.98F
KENORA         PTSUNNY   54  43  66 SE13      29.93
$$
                *** MANITOBA***

CITY           SKY/WX    TMP DP  RH WIND       PRES   REMARKS
BRANDON        CLOUDY    52  46  82 SE14G23   29.73F
DAUPHIN        PTSUNNY   54  46  76 SE18G26   29.70F
ISLAND LAKE    PTSUNNY   54  43  66 S10       29.88F
PILOT MOUND      N/A     50  46  87 SE17G23     N/A
THE PAS        CLOUDY    54  48  82 SE16      29.65F
THOMPSON       CLOUDY    52  46  82 SE7       29.74F
WINNIPEG       PTSUNNY   59  45  58 SE18      29.81F
LYNN LAKE      LGT RAIN  45  45 100 SE10      29.63F
CHURCHILL      CLOUDY    43  41  93 SE17      29.87
GILLAM         CLOUDY    50  41  71 S15       29.84F
$$
                ***SASKATCHEWAN***

CITY           SKY/WX    TMP DP  RH WIND       PRES   REMARKS
ESTEVAN        LGT RAIN  50  50 100 SE9       29.62F FOG
KINDERSLEY     CLOUDY    54  48  82 NW13      29.58R
LLOYDMINSTER   CLOUDY    54  50  87 NW12G23   29.58R
PRINCE ALBERT  CLOUDY    55  50  82 SW7       29.56S
REGINA         CLOUDY    57  54  88 SE9G17    29.58F



USA.gov is the U.S. government's official web portal to all federal, state and local government web resources and services.